This is the latest recevied weather packets stored in our database for station/object CT1ETE-13. If no packets are shown the sender has not sent any weather packets the latest 10 day(s).
| Time | Temp. | Humidity | Pressure | Rain* | Wind** | Luminosity | Snow |
|---|---|---|---|---|---|---|---|
| 1787374926 | 15.56° C | 81% | 1012.8 hPa | 0 mm | - | - | - |
| 1787374082 | 16.11° C | 80% | 1013 hPa | 0 mm | - | - | - |
| 1787373120 | 16.11° C | 80% | 1013 hPa | 0 mm | - | - | - |
| 1787372217 | 16.11° C | 81% | 1013.1 hPa | 0 mm | - | - | - |
| 1787371376 | 16.11° C | 79% | 1013.2 hPa | 0 mm | - | - | - |
| 1787370414 | 16.67° C | 78% | 1013.3 hPa | 0 mm | - | - | - |
| 1787369512 | 17.22° C | 76% | 1013.3 hPa | 0 mm | - | - | - |
| 1787368611 | 17.78° C | 75% | 1013.1 hPa | 0 mm | - | - | - |
| 1787367712 | 17.78° C | 74% | 1013 hPa | 0 mm | - | - | - |
| 1787366812 | 17.78° C | 74% | 1012.9 hPa | 0 mm | - | - | - |
| 1787365973 | 17.78° C | 75% | 1013.1 hPa | 0 mm | - | - | - |
| 1787365012 | 17.78° C | 75% | 1013 hPa | 0 mm | - | - | - |
| 1787364110 | 17.22° C | 76% | 1013 hPa | 0 mm | - | - | - |
| 1787363204 | 16.67° C | 77% | 1013.3 hPa | 0 mm | - | - | - |
| 1787362304 | 16.67° C | 77% | 1013.5 hPa | 0 mm | - | - | - |
| 1787361404 | 16.67° C | 77% | 1013.5 hPa | 0 mm | - | - | - |
| 1787360503 | 16.67° C | 77% | 1013.7 hPa | 0 mm | - | - | - |
| 1787359604 | 17.22° C | 77% | 1013.8 hPa | 0 mm | - | - | - |
| 1787358705 | 17.22° C | 76% | 1013.9 hPa | 0 mm | - | - | - |
| 1787357804 | 17.22° C | 76% | 1014 hPa | 0 mm | - | - | - |
| 1787356902 | 17.22° C | 76% | 1014.1 hPa | 0 mm | - | - | - |
* Rain latest hour (hover to see other rain measurements)
** Current wind speed in m/s (hover to see current wind gust speed)